User: anonymous   Login
Location: Oshawa
(43.9000°N, 78.8670°W)
Time: 12:15:14
(UTC-04:00)
Language:

ITAMSAT 1 - Orbit

View from above orbital plane
View from above orbital plane
View from above satellite
View from above satellite

Ground track
Ground track

The orbit data is extracted from the following two-line orbital elements,

1 22826U 93061D   17291.90145258 +.00000002 +00000-0 +18459-4 0  9996
2 22826 098.8229 259.1671 0008365 326.8928 033.1730 14.30339786255015
Epoch (UTC): 18 October 2017 21:38:05
Eccentricity: 0.0008365
inclination: 98.8229°
perigee height: 784 km
apogee height: 796 km
right ascension of ascending node: 259.1671°
argument of perigee: 326.8928°
revolutions per day: 14.30339786
mean anomaly at epoch: 33.1730°
orbit number at epoch: 25501

The dashed part of the orbit path shows where the satellite is in the earth's shadow,  

DLR